Wilmington, DE

7:44 PM EST on December 10, 2017 (GMT -0500)
New Castle County

Weather History for KILG - January, 2014

Change the Weather History Date:

Tuesday, January 14, 2014

  Actual Average Record
Temperature  
Mean Temperature 45 °F 32 °F  
Max Temperature 52 °F 40 °F 70 °F (1932)
Min Temperature 38 °F 24 °F 6 °F (1988)
Degree Days  
Heating Degree Days 20 33  
Month to date heating degree days 483 456  
Since 1 July heating degree days 2247 2233  
Cooling Degree Days 0 0  
Month to date cooling degree days 0 0  
Year to date cooling degree days 0 0  
Moisture  
Dew Point 43 °F    
Average Humidity 78    
Maximum Humidity 96    
Minimum Humidity 59    
Precipitation  
Precipitation 0.25 in 0.11 in 2.07 in (1921)
Month to date precipitation 2.38 1.35  
Year to date precipitation 2.38 1.35  
Snow  
Snow 0.00 in 0.20 in 9.00 in (1910)
Month to date snowfall 5.0 2.1  
Since 1 July snowfall 16.9 5.9  
Snow Depth 0.00 in    
Sea Level Pressure  
Sea Level Pressure 29.80 in    
Wind  
Wind Speed 6 mph (SSW)    
Max Wind Speed 14 mph    
Max Gust Speed 17 mph    
Visibility 4 miles    
Events Fog , Rain    
T = Trace of Precipitation, MM = Missing Value Source: NWS Daily Summary

Daily Weather History Graph

Daily Weather History Graph

Search for Another Location

Airport or City:

Trip Planner

Search our weather history database for the weather conditions in past years. The results will help you decide how hot, cold, wet, or windy it might be!

Date:

Astronomy

Jan. 14, 2014 Rise Set
Actual Time 7:21 AM EST 5:01 PM EST
Civil Twilight 6:52 AM EST 5:31 PM EST
Nautical Twilight 6:19 AM EST 6:04 PM EST
Astronomical Twilight 5:46 AM EST 6:36 PM EST
Moon 4:04 PM EST (1/14) 5:54 AM EST (1/14)
Length of Visible Light 10h 38m
Length of Day
9h 39m
Waxing Gibbous, 98% of the Moon is Illuminated
Jan 14
Waxing Gibbous
Jan 15
Full
Jan 24
Last Quarter
Jan 30
New
Feb 6
First Quarter

Hourly Weather History & Observations

Time (EST) Temp. Windchill Dew Point Humidity Pressure Visibility Wind Dir Wind Speed Gust Speed Precip Events Conditions
12:51 AM 51.1 °F - 37.0 °F 59% 29.87 in 10.0 mi SSW 10.4 mph - N/A   Clear
1:51 AM 52.0 °F - 37.0 °F 57% 29.86 in 10.0 mi South 12.7 mph - N/A   Partly Cloudy
2:51 AM 50.0 °F - 39.0 °F 66% 29.87 in 10.0 mi SSW 8.1 mph - 0.00 in Rain Light Rain
3:51 AM 46.9 °F - 41.0 °F 80% 29.86 in 7.0 mi South 4.6 mph - 0.02 in Rain Rain
4:51 AM 46.0 °F 44.8 °F 41.0 °F 83% 29.82 in 10.0 mi SSE 3.5 mph - 0.01 in   Mostly Cloudy
5:51 AM 45.0 °F 41.8 °F 41.0 °F 86% 29.83 in 10.0 mi SSE 5.8 mph - 0.00 in Rain Light Rain
6:51 AM 44.1 °F 39.5 °F 41.0 °F 89% 29.83 in 10.0 mi SSE 8.1 mph - 0.00 in Rain Light Rain
7:51 AM 44.1 °F 40.1 °F 43.0 °F 96% 29.81 in 7.0 mi South 6.9 mph - 0.01 in Rain Light Rain
8:51 AM 45.0 °F 42.6 °F 44.1 °F 97% 29.79 in 5.0 mi South 4.6 mph - 0.00 in   Overcast
9:26 AM 44.6 °F 43.1 °F 44.6 °F 100% 29.78 in 1.8 mi SSE 3.5 mph - N/A   Overcast
9:38 AM 46.4 °F 43.5 °F 44.6 °F 93% 29.79 in 3.0 mi SSE 5.8 mph - N/A   Overcast
9:51 AM 46.0 °F 42.5 °F 45.0 °F 96% 29.78 in 2.0 mi SSE 6.9 mph - N/A   Overcast
9:59 AM 46.4 °F 44.3 °F 44.6 °F 93% 29.79 in 2.0 mi South 4.6 mph - N/A   Overcast
10:35 AM 46.4 °F 43.5 °F 44.6 °F 93% 29.79 in 3.0 mi SSE 5.8 mph - 0.00 in Rain Light Rain
10:43 AM 46.4 °F 43.5 °F 44.6 °F 93% 29.79 in 1.5 mi South 5.8 mph - 0.00 in Rain Light Rain
10:51 AM 46.0 °F 43.1 °F 45.0 °F 96% 29.79 in 0.8 mi South 5.8 mph - 0.00 in Rain Light Rain
11:40 AM 46.4 °F 44.3 °F 44.6 °F 93% 29.76 in 0.5 mi SSE 4.6 mph - 0.00 in Rain Light Rain
11:51 AM 45.0 °F 42.6 °F 45.0 °F 100% 29.75 in 0.5 mi SSE 4.6 mph - 0.01 in Rain Rain
11:57 AM 44.6 °F 43.1 °F 44.6 °F 100% 29.75 in 0.5 mi South 3.5 mph - 0.01 in Rain Rain
12:10 PM 46.4 °F - 44.6 °F 93% 29.74 in 0.5 mi Calm Calm - 0.01 in Rain Light Rain
12:51 PM 46.0 °F 44.8 °F 45.0 °F 96% 29.74 in 0.5 mi SSW 3.5 mph - 0.02 in Rain Light Rain
1:51 PM 48.0 °F - 46.0 °F 93% 29.71 in 0.5 mi WNW 9.2 mph - 0.09 in Rain Light Rain
1:53 PM 46.4 °F 41.9 °F 46.4 °F 100% 29.71 in 6.0 mi WNW 9.2 mph - 0.00 in Rain Light Rain
2:43 PM 46.4 °F 41.9 °F 44.6 °F 93% 29.73 in 6.0 mi NW 9.2 mph - 0.02 in Rain Light Rain
2:51 PM 46.9 °F - 45.0 °F 93% 29.73 in 5.0 mi NW 9.2 mph - 0.03 in Rain Rain
3:27 PM 46.4 °F 44.3 °F 44.6 °F 93% 29.73 in 10.0 mi NNW 4.6 mph - 0.03 in Rain Light Rain
3:51 PM 46.9 °F - 45.0 °F 93% 29.74 in 9.0 mi Calm Calm - 0.03 in Rain Light Rain
4:51 PM 46.0 °F - 45.0 °F 96% 29.76 in 6.0 mi Calm Calm - 0.01 in Rain Light Rain
5:51 PM 46.0 °F - 45.0 °F 96% 29.76 in 6.0 mi Calm Calm - 0.01 in Rain Light Rain
6:51 PM 46.9 °F - 45.0 °F 93% 29.84 in 7.0 mi West 9.2 mph - 0.00 in   Overcast
7:51 PM 45.0 °F 41.2 °F 43.0 °F 93% 29.87 in 7.0 mi WSW 6.9 mph - 0.00 in   Partly Cloudy
8:51 PM 44.1 °F 41.5 °F 43.0 °F 96% 29.88 in 4.0 mi SW 4.6 mph - N/A   Clear
9:51 PM 42.1 °F 38.4 °F 41.0 °F 96% 29.89 in 4.0 mi SW 5.8 mph - N/A   Clear
10:09 PM 39.2 °F 34.2 °F 39.2 °F 100% 29.90 in 0.5 mi West 6.9 mph - N/A Fog Fog
10:11 PM 39.2 °F 34.2 °F 39.2 °F 100% 29.90 in 0.2 mi West 6.9 mph - N/A Fog Fog
10:51 PM 42.1 °F 37.1 °F 41.0 °F 96% 29.90 in 0.2 mi West 8.1 mph - N/A Fog Fog
11:51 PM 37.9 °F 34.4 °F 37.9 °F 100% 29.91 in 0.2 mi WNW 4.6 mph - 0.01 in Fog Fog